TimeCDT,TemperatureF,Dew PointF,Humidity,Sea Level PressureIn,VisibilityMPH,Wind Direction,Wind SpeedMPH,Gust SpeedMPH,PrecipitationIn,Events,Conditions,WindDirDegrees,DateUTC
12:53 AM,82.9,57.9,42,29.95,10.0,South,9.2,-,N/A,,Clear,190,2013-07-10 05:53:00
1:53 AM,82.0,57.9,44,29.95,10.0,SSW,9.2,-,N/A,,Clear,200,2013-07-10 06:53:00
2:53 AM,81.0,57.9,45,29.95,10.0,SSW,9.2,-,N/A,,Clear,200,2013-07-10 07:53:00
3:53 AM,79.0,59.0,50,29.95,10.0,SSW,9.2,-,N/A,,Clear,200,2013-07-10 08:53:00
4:53 AM,79.0,59.0,50,29.96,10.0,SSW,10.4,-,N/A,,Clear,200,2013-07-10 09:53:00
5:53 AM,75.9,57.9,54,29.97,10.0,SSW,8.1,-,N/A,,Clear,200,2013-07-10 10:53:00
6:53 AM,75.9,59.0,56,29.99,10.0,SSW,9.2,-,N/A,,Clear,210,2013-07-10 11:53:00
7:53 AM,79.0,59.0,50,29.99,10.0,SSW,8.1,-,N/A,,Clear,210,2013-07-10 12:53:00
8:53 AM,86.0,59.0,40,29.98,10.0,SW,10.4,-,N/A,,Clear,220,2013-07-10 13:53:00
9:53 AM,93.0,59.0,32,29.98,10.0,WSW,21.9,26.5,N/A,,Clear,250,2013-07-10 14:53:00
10:53 AM,96.1,59.0,29,29.99,10.0,West,15.0,24.2,N/A,,Clear,260,2013-07-10 15:53:00
11:53 AM,98.1,57.9,26,29.98,10.0,West,15.0,21.9,N/A,,Clear,270,2013-07-10 16:53:00
12:53 PM,98.1,57.9,26,29.97,10.0,Variable,4.6,18.4,N/A,,Clear,0,2013-07-10 17:53:00
1:53 PM,102.9,57.9,23,29.95,10.0,SSW,16.1,20.7,N/A,,Partly Cloudy,210,2013-07-10 18:53:00
2:53 PM,100.0,57.9,25,29.94,10.0,West,3.5,-,N/A,,Clear,270,2013-07-10 19:53:00
3:53 PM,100.9,57.0,23,29.92,10.0,SSW,10.4,18.4,N/A,,Mostly Cloudy,200,2013-07-10 20:53:00
4:53 PM,102.9,57.0,22,29.89,10.0,SSW,8.1,-,N/A,,Clear,200,2013-07-10 21:53:00
5:53 PM,102.9,57.0,22,29.87,10.0,South,12.7,17.3,N/A,,Mostly Cloudy,190,2013-07-10 22:53:00
6:53 PM,100.9,57.0,23,29.86,10.0,SSW,12.7,19.6,N/A,,Scattered Clouds,210,2013-07-10 23:53:00
7:53 PM,98.1,57.0,25,29.86,10.0,South,10.4,-,N/A,,Clear,170,2013-07-11 00:53:00
8:53 PM,91.9,57.0,31,29.86,10.0,South,5.8,-,N/A,,Clear,170,2013-07-11 01:53:00
9:53 PM,88.0,57.9,36,29.88,10.0,South,6.9,-,N/A,,Clear,180,2013-07-11 02:53:00
10:53 PM,86.0,57.9,38,29.91,10.0,SSE,9.2,-,N/A,,Clear,160,2013-07-11 03:53:00
11:53 PM,89.1,60.1,38,29.91,10.0,SSE,12.7,-,N/A,,Clear,160,2013-07-11 04:53:00